AGROMETEOROLOŠKI PORTAL

vinorodna pokrajina

Temelj dobrega kmetovanja

Pregled podatkov za lokacijo Gabernik-Rogaška, meteorološka postaja 37800

Pregled senzorjev na lokaciji

ID Ime Zadnja
vrednost
Datum in čas
meritve
(lokalni čas)
Tip
senzorja
1828 Omočenost lista (1,5 m) (U) 0 U 1.2.2023 13:30 A730WET
4946 Padavine (mm) 0 mm 1.2.2023 13:30 Generic 0.2 mm
1827 Relativna zračna vlaga (2 m) (%RH) 49 %RH 1.2.2023 13:30 50YA
1826 Temperatura (2 m) (°C) 9,6 °C 1.2.2023 13:30 50YA

Pregled podatkov zadnjih 24 ur

Zap.
št.
Datum in čas
(lokalni čas)
Gabernik-Rogaška
Omočenost
lista
(1,5
m)
Padavine Relativna
zračna
vlaga
(2
m)
Temperatura
(2
m)
1 1.2.2023 13:30 0 0 48,7 9,6
2 1.2.2023 13:00 0 0 49,2 8,9
3 1.2.2023 12:30 0 0 50,5 8,3
4 1.2.2023 12:00 0 0 53,1 6,5
5 1.2.2023 11:30 0 0 54,7 5,7
6 1.2.2023 11:00 0 0 58,4 4,8
7 1.2.2023 10:30 0 0 65,2 2,8
8 1.2.2023 10:00 0 0 71,6 0,4
9 1.2.2023 09:30 0 0 68,6 -0,1
10 1.2.2023 09:00 0 0 69,4 -0,4
11 1.2.2023 08:30 0 0 73,9 -1,3
12 1.2.2023 08:00 0 0 70,3 -0,8
13 1.2.2023 07:30 0 0 68,8 -0,5
14 1.2.2023 07:00 0 0 71 -0,8
15 1.2.2023 06:30 0 0 73 -1,2
16 1.2.2023 06:00 0 0 71,2 -0,9
17 1.2.2023 05:30 0 0 68 -0,3
18 1.2.2023 05:00 0 0 69,1 -0,4
19 1.2.2023 04:30 0 0 70,6 -0,6
20 1.2.2023 04:00 0 0 68,7 -0,2
21 1.2.2023 03:30 0 0 68,2 -0,1
22 1.2.2023 03:00 0 0 70,1 -0,4
23 1.2.2023 02:30 0 0 71,1 -0,5
24 1.2.2023 02:00 0 0 66,7 0,3
25 1.2.2023 01:30 0 0 68,5 0
26 1.2.2023 01:00 0 0 70,5 -0,2
27 1.2.2023 00:30 0 0 70,3 -0,2
28 1.2.2023 00:00 0 0 69,1 0
29 31.1.2023 23:30 0 0 64,1 1
30 31.1.2023 23:00 0 0 54,4 3
31 31.1.2023 22:30 0 0 55,4 2,8
32 31.1.2023 22:00 0 0 55,6 2,6
33 31.1.2023 21:30 0 0 52,4 3,2
34 31.1.2023 21:00 0 0 45,4 4,6
35 31.1.2023 20:30 0 0 42,8 5,1
36 31.1.2023 20:00 0 0 41,7 5,3
37 31.1.2023 19:30 0 0 41,2 5,5
38 31.1.2023 19:00 0 0 39,6 6
39 31.1.2023 18:30 0 0 39,4 6,1
40 31.1.2023 18:00 0 0 38,2 6,2
41 31.1.2023 17:30 0 0 37,9 6,4
42 31.1.2023 17:00 0 0 35,3 7,2
43 31.1.2023 16:30 0 0 36,7 7,1
44 31.1.2023 16:00 0 0 34,6 7,8
45 31.1.2023 15:30 0 0 34,5 8,5
46 31.1.2023 15:00 0 0 34,4 9,7
47 31.1.2023 14:30 0 0 33,2 8,7
48 31.1.2023 14:00 0 0 33,4 8,3